sat.trackr.live / text

‹ back to catalog

LUNA-1

NORAD 66777 · 2025-276DR

PAYLOAD ACTIVE UNKNOWN

§ Identity

Operator
Country
TURK
Launch date
2025-11-28
Launch site
AFWTR
Launch vehicle
Mass (kg)
RCS (m²)

External: N2YO · Heavens-Above · Gunter

§ Orbital elements

Epoch: 2026-05-25T04:27:28.145088Z

Period
94.60 min
Inclination
97.4261°
Eccentricity
0.0000688
Mean motion
15.22257824 rev/d
Perigee alt
498.6 km
Apogee alt
499.5 km
Semi-major
6,877.2 km
B*
4.1891e-4
RAAN
219.7927°
Arg perigee
356.4556°
Mean anomaly
3.6676°
Rev number
2,696

§ Raw data

LUNA-11 66777U 25276DR  26145.18574242  .00009572  00000+0  41891-3 0  99942 66777  97.4261 219.7927 0000688 356.4556   3.6676 15.22257824 26966

JSON: /api/v1/satellites/66777 · /tle

For live sub-satellite position, see the globe view (requires WebGL).

§ Visibility from observer

Set your observer location to see the next 7 days of passes ≥ 10°. The values pass through the URL so the page stays shareable.

No JS? Fill the form by hand. The geolocation button needs JavaScript.